DJ3OW-13 Weather Reports


Display with metric or nautical units.
time (UTC)temp
F
wind
direction
speed
MPH
gust
MPH
rain 1hr
in
rain 24hr
in
rain mn
in
humidity
%
barometer
mb
20260901110556 69 243 2.0 6.0 0.00 0.24 0.04 69 1022.0
20260901105555 69 271 4.0 8.0 0.00 0.24 0.04 71 1022.0
20260901104612 69 278 4.0 11.0 0.00 0.24 0.04 70 1021.9
20260901103610 70 263 4.0 9.0 0.00 0.24 0.04 70 1021.9
20260901102548 69 289 5.0 11.0 0.00 0.24 0.04 70 1022.0
20260901101546 68 242 4.0 11.0 0.00 0.24 0.04 71 1021.9
20260901100544 68 255 5.0 13.0 0.00 0.24 0.04 71 1021.9
20260901095542 68 295 5.0 11.0 0.00 0.24 0.04 72 1021.8
20260901094540 68 271 4.0 8.0 0.00 0.24 0.04 73 1021.8
20260901093538 67 293 3.0 8.0 0.00 0.24 0.04 75 1022.0
20260901092536 67 272 3.0 7.0 0.00 0.24 0.04 77 1022.0
20260901091534 66 274 4.0 7.0 0.00 0.24 0.04 77 1021.9
20260901090532 66 253 3.0 8.0 0.00 0.24 0.04 77 1021.8
20260901085530 66 267 2.0 7.0 0.00 0.24 0.04 77 1021.7
20260901084528 66 273 4.0 7.0 0.00 0.24 0.04 78 1021.8
20260901083546 66 235 3.0 7.0 0.00 0.24 0.04 78 1021.5
20260901082524 65 290 4.0 11.0 0.00 0.24 0.04 79 1021.5
20260901081522 64 259 5.0 14.0 0.00 0.25 0.04 80 1021.6
20260901080520 64 278 3.0 7.0 0.00 0.25 0.04 81 1021.3
20260901075518 64 245 4.0 11.0 0.00 0.25 0.04 82 1021.3
20260901074516 63 282 4.0 11.0 0.00 0.25 0.04 83 1021.3
20260901073634 63 273 2.0 6.0 0.00 0.25 0.04 84 1021.1
20260901072612 62 278 2.0 4.0 0.00 0.25 0.04 85 1021.2
20260901071610 62 257 2.0 6.0 0.00 0.25 0.04 86 1020.9
20260901070608 61 296 2.0 4.0 0.00 0.25 0.04 87 1021.0
20260901065606 61 274 2.0 6.0 0.00 0.25 0.04 88 1020.7
20260901064604 60 263 1.0 4.0 0.00 0.25 0.04 89 1020.8
20260901063602 60 251 2.0 4.0 0.00 0.25 0.04 89 1020.7
20260901062600 60 274 1.0 4.0 0.00 0.25 0.04 90 1020.6
20260901061618 60 270 1.0 4.0 0.00 0.25 0.04 90 1020.6
20260901060555 60 294 1.0 2.0 0.00 0.25 0.04 91 1020.5
20260901055553 59 277 1.0 4.0 0.00 0.25 0.04 92 1020.4
20260901054612 59 270 0.0 2.0 0.00 0.25 0.04 92 1020.4
20260901053550 59 270 0.0 2.0 0.00 0.25 0.04 92 1020.3
20260901052608 58 266 1.0 2.0 0.00 0.25 0.04 92 1020.2
20260901051546 58 263 1.0 2.0 0.00 0.25 0.04 92 1020.1
20260901050543 58 180 0.0 2.0 0.00 0.25 0.04 91 1020.1
20260901045541 59 189 1.0 4.0 0.00 0.25 0.04 91 1020.0
20260901044600 59 206 1.0 2.0 0.00 0.25 0.04 90 1019.9
20260901043538 59 264 1.0 4.0 0.00 0.25 0.04 89 1019.8
20260901042535 60 240 2.0 4.0 0.00 0.25 0.04 88 1019.7
20260901041533 60 268 3.0 6.0 0.00 0.25 0.04 88 1019.5
20260901040532 60 253 3.0 6.0 0.00 0.25 0.04 88 1019.4
20260901035549 60 271 3.0 6.0 0.00 0.25 0.04 88 1019.3
20260901034528 60 277 4.0 7.0 0.00 0.25 0.04 88 1019.2
20260901033525 60 271 3.0 6.0 0.00 0.25 0.04 88 1019.2
20260901032523 60 260 3.0 6.0 0.00 0.25 0.04 88 1019.1
20260901031521 60 260 3.0 7.0 0.00 0.25 0.04 89 1019.0
20260901030519 60 270 3.0 7.0 0.00 0.25 0.04 89 1019.1
20260901025517 60 249 3.0 7.0 0.00 0.25 0.04 89 1019.0
20260901024515 60 270 4.0 9.0 0.00 0.25 0.04 89 1019.0
20260901023613 60 257 2.0 6.0 0.00 0.25 0.04 89 1019.0
20260901022612 60 277 3.0 6.0 0.00 0.25 0.04 89 1018.9
20260901021630 60 283 3.0 6.0 0.00 0.25 0.04 90 1018.8
20260901020607 59 260 2.0 4.0 0.00 0.25 0.04 91 1018.9
20260901015605 59 258 1.0 4.0 0.00 0.25 0.04 91 1018.7
20260901014643 59 270 2.0 4.0 0.00 0.25 0.04 91 1018.7
20260901013641 59 309 2.0 4.0 0.02 0.25 0.04 93 1018.7
20260901012600 59 264 1.0 4.0 0.04 0.25 0.04 93 1018.7
20260901011557 59 260 1.0 2.0 0.04 0.25 0.04 94 1018.7
20260901010635 59 261 1.0 2.0 0.04 0.25 0.04 93 1018.8
20260901005553 59 270 1.0 2.0 0.04 0.25 0.04 92 1018.8
20260901004551 60 260 1.0 4.0 0.04 0.25 0.04 91 1018.7
20260901003549 60 256 1.0 4.0 0.01 0.22 0.01 89 1018.8
20260901002628 60 256 2.0 4.0 0.00 0.21 0.00 88 1018.6
20260901001545 60 266 2.0 4.0 0.00 0.21 0.00 89 1018.5
20260901000603 60 293 1.0 2.0 0.00 0.21 0.00 89 1018.5
20260831235601 60 278 1.0 4.0 0.00 0.21 0.00 89 1018.4
20260831234539 60 295 2.0 7.0 0.00 0.21 0.00 89 1018.4
20260831233537 60 266 3.0 6.0 0.00 0.21 0.00 89 1018.3
20260831232535 60 268 3.0 9.0 0.00 0.21 0.00 87 1018.3
20260831231533 60 292 3.0 6.0 0.00 0.21 0.00 86 1018.3
20260831230531 61 247 1.0 6.0 0.00 0.21 0.00 85 1018.3
20260831225529 61 315 1.0 4.0 0.00 0.21 0.00 84 1018.1
20260831224527 61 285 2.0 6.0 0.00 0.21 0.00 84 1018.2
20260831223525 60 269 2.0 4.0 0.00 0.21 0.00 85 1018.1
20260831222543 60 289 4.0 9.0 0.00 0.21 0.00 85 1017.9
20260831221521 60 282 4.0 9.0 0.00 0.21 0.00 87 1017.8
20260831220519 60 252 3.0 11.0 0.00 0.21 0.00 85 1017.8
20260831215517 60 282 5.0 11.0 0.00 0.21 0.21 85 1017.7
20260831214515 60 239 2.0 6.0 0.00 0.21 0.21 85 1017.6
20260831213613 60 274 2.0 8.0 0.00 0.21 0.21 85 1017.5
20260831212611 60 268 2.0 7.0 0.00 0.21 0.21 85 1017.4
20260831211629 60 291 1.0 2.0 0.00 0.21 0.21 85 1017.3
20260831210607 60 279 1.0 4.0 0.00 0.21 0.21 84 1017.3
20260831205605 60 280 1.0 4.0 0.00 0.21 0.21 84 1017.2
20260831204603 60 310 1.0 4.0 0.00 0.21 0.21 84 1017.1
20260831203621 60 248 1.0 2.0 0.00 0.21 0.21 83 1017.1
20260831202559 60 276 2.0 6.0 0.00 0.21 0.21 84 1017.0
20260831201557 60 284 2.0 4.0 0.00 0.21 0.21 83 1016.9
20260831200555 61 263 2.0 6.0 0.00 0.21 0.21 82 1016.8
20260831195553 60 262 2.0 6.0 0.00 0.21 0.21 82 1016.6
20260831194551 60 273 3.0 6.0 0.00 0.21 0.21 82 1016.5
20260831193549 61 260 2.0 6.0 0.00 0.21 0.21 82 1016.5
20260831192547 61 261 2.0 4.0 0.00 0.21 0.21 83 1016.5
20260831191545 61 256 4.0 7.0 0.00 0.21 0.21 82 1016.5
20260831190543 61 257 3.0 6.0 0.00 0.21 0.21 84 1016.4
20260831185541 61 297 3.0 6.0 0.00 0.21 0.21 85 1016.3
20260831184559 61 266 3.0 7.0 0.00 0.21 0.21 85 1016.3
20260831183617 61 267 3.0 6.0 0.00 0.21 0.21 85 1016.0
20260831182535 61 280 3.0 6.0 0.00 0.21 0.21 84 1015.8
20260831181533 61 277 3.0 7.0 0.00 0.21 0.21 84 1016.0
20260831180531 61 256 3.0 4.0 0.00 0.21 0.21 84 1015.7
20260831175529 61 288 4.0 8.0 0.00 0.21 0.21 83 1015.4
20260831174527 61 287 3.0 7.0 0.00 0.21 0.21 83 1015.4
20260831173525 62 279 3.0 8.0 0.00 0.21 0.21 83 1015.2
20260831172523 61 268 3.0 7.0 0.00 0.21 0.21 84 1015.3
20260831171521 61 289 3.0 7.0 0.01 0.21 0.21 83 1015.3
20260831170519 61 292 2.0 4.0 0.02 0.21 0.21 83 1015.2
20260831165516 61 254 2.0 4.0 0.04 0.21 0.21 85 1015.1
20260831164514 61 278 2.0 4.0 0.05 0.21 0.21 85 1014.7
20260831163613 61 270 3.0 8.0 0.05 0.21 0.21 85 1014.6
20260831162611 60 265 2.0 4.0 0.05 0.21 0.21 87 1014.8
20260831161609 61 263 3.0 7.0 0.04 0.20 0.20 87 1014.6
20260831160606 62 284 4.0 11.0 0.02 0.19 0.19 87 1015.0
20260831155604 63 272 3.0 7.0 0.01 0.18 0.18 86 1015.1
20260831154622 63 282 4.0 8.0 0.00 0.17 0.17 85 1015.0
20260831153601 63 242 4.0 8.0 0.00 0.17 0.17 88 1014.5
20260831152558 63 248 1.0 4.0 0.00 0.17 0.17 89 1014.3
20260831151557 63 248 1.0 2.0 0.15 0.17 0.17 88 1014.3
20260831150554 63 249 2.0 4.0 0.15 0.17 0.17 88 1014.3
20260831145552 63 266 3.0 4.0 0.15 0.17 0.17 90 1014.2
20260831144610 62 261 3.0 7.0 0.15 0.17 0.17 91 1013.9
20260831143548 62 251 4.0 9.0 0.15 0.17 0.17 91 1013.7
20260831142546 63 251 3.0 7.0 0.15 0.17 0.17 89 1014.0
20260831141544 68 242 3.0 8.0 0.00 0.01 0.01 72 1013.9
20260831140542 71 324 3.0 8.0 0.00 0.01 0.01 62 1013.8
20260831135600 71 305 3.0 7.0 0.00 0.01 0.01 63 1013.7
20260831134538 71 302 3.0 9.0 0.00 0.01 0.01 64 1013.9
20260831133536 73 134 3.0 9.0 0.00 0.01 0.01 62 1013.6
20260831132554 72 317 3.0 8.0 0.00 0.01 0.01 64 1013.8
20260831131532 70 156 2.0 7.0 0.00 0.01 0.01 67 1013.9
20260831130530 71 282 4.0 8.0 0.00 0.01 0.01 64 1014.1
20260831125528 72 123 1.0 4.0 0.00 0.01 0.01 61 1013.9
20260831124526 72 267 3.0 9.0 0.00 0.01 0.01 60 1013.8
20260831123524 72 282 2.0 8.0 0.00 0.01 0.01 61 1013.7
20260831122522 72 307 2.0 7.0 0.00 0.01 0.01 62 1014.0
20260831121520 71 268 2.0 6.0 0.00 0.01 0.01 62 1014.0
20260831120518 71 278 4.0 8.0 0.00 0.01 0.01 60 1013.8
20260831115516 72 319 3.0 9.0 0.00 0.01 0.01 60 1014.0
20260831114614 72 280 4.0 11.0 0.00 0.01 0.01 61 1014.0
20260831113612 73 304 3.0 8.0 0.00 0.01 0.01 59 1014.1
20260831112610 72 284 4.0 9.0 0.00 0.01 0.01 65 1014.0
20260831111608 72 328 2.0 7.0 0.00 0.01 0.01 65 1014.0